Wetterdaten: Mittwoch, 18.02.2015
Datum Zeit Temp. A. Feuchte A. Luftdruck Regen Wind Richtung Richtung Sonnenschein ET UV Solar Taupunkt Windchill Windben Empfang
18.02.2015 00:00 -0,9 C 83 % 1039,5 hPa 0,0 l/m 0,0 km/h (0 Bft) S-SW 206 0 min 0,000 mm 0,0 UV-I 0 W/m -3,4 C -0,9 C 0,0 km/h (0 Bft) 0,00 %
18.02.2015 00:15 -0,8 C 83 % 1039,7 hPa 0,0 l/m 0,0 km/h (0 Bft) SW 227 0 min 0,000 mm 0,0 UV-I 0 W/m -3,3 C -0,8 C 0,0 km/h (0 Bft) 0,00 %
18.02.2015 00:30 -0,8 C 83 % 1039,8 hPa 0,0 l/m 0,0 km/h (0 Bft) W-SW 253 0 min 0,000 mm 0,0 UV-I 0 W/m -3,3 C -0,8 C 0,0 km/h (0 Bft) 0,00 %
18.02.2015 00:45 -0,8 C 83 % 1039,9 hPa 0,0 l/m 1,4 km/h (1 Bft) SW 216 0 min 0,000 mm 0,0 UV-I 0 W/m -3,3 C -0,8 C 4,0 km/h (1 Bft) 0,00 %
18.02.2015 01:00 -0,9 C 83 % 1040,0 hPa 0,0 l/m 5,4 km/h (1 Bft) W-SW 253 0 min 0,000 mm 0,0 UV-I 0 W/m -3,4 C -0,9 C 7,9 km/h (2 Bft) 0,00 %
18.02.2015 01:15 -0,9 C 83 % 1040,2 hPa 0,0 l/m 0,0 km/h (0 Bft) S-SW 197 0 min 0,000 mm 0,0 UV-I 0 W/m -3,4 C -0,9 C 0,0 km/h (0 Bft) 0,00 %
18.02.2015 01:30 -1,1 C 83 % 1040,4 hPa 0,0 l/m 0,0 km/h (0 Bft) W-SW 250 0 min 0,000 mm 0,0 UV-I 0 W/m -3,6 C -1,1 C 0,0 km/h (0 Bft) 0,00 %
18.02.2015 01:45 -1,0 C 83 % 1040,4 hPa 0,0 l/m 1,8 km/h (1 Bft) SW 220 0 min 0,000 mm 0,0 UV-I 0 W/m -3,5 C -1,0 C 4,0 km/h (1 Bft) 0,00 %
18.02.2015 02:00 -1,0 C 83 % 1040,5 hPa 0,0 l/m 0,0 km/h (0 Bft) W-SW 240 0 min 0,000 mm 0,0 UV-I 0 W/m -3,5 C -1,0 C 0,0 km/h (0 Bft) 0,00 %
18.02.2015 02:15 -1,0 C 83 % 1040,6 hPa 0,0 l/m 0,0 km/h (0 Bft) W-SW 247 0 min 0,000 mm 0,0 UV-I 0 W/m -3,5 C -1,0 C 0,0 km/h (0 Bft) 0,00 %
18.02.2015 02:30 -1,0 C 83 % 1040,5 hPa 0,0 l/m 0,4 km/h (0 Bft) SW 222 0 min 0,000 mm 0,0 UV-I 0 W/m -3,5 C -1,0 C 4,0 km/h (1 Bft) 0,00 %
18.02.2015 02:45 -0,9 C 83 % 1040,5 hPa 0,0 l/m 0,0 km/h (0 Bft) S-SW 196 0 min 0,000 mm 0,0 UV-I 0 W/m -3,4 C -0,9 C 0,0 km/h (0 Bft) 0,00 %
18.02.2015 03:00 -0,9 C 83 % 1040,5 hPa 0,0 l/m 0,0 km/h (0 Bft) SW 226 0 min 0,000 mm 0,0 UV-I 0 W/m -3,4 C -0,9 C 0,0 km/h (0 Bft) 0,00 %
18.02.2015 03:15 -0,9 C 84 % 1040,6 hPa 0,0 l/m 0,0 km/h (0 Bft) SW 224 0 min 0,000 mm 0,0 UV-I 0 W/m -3,3 C -0,9 C 0,0 km/h (0 Bft) 0,00 %
18.02.2015 03:30 -0,9 C 84 % 1040,3 hPa 0,0 l/m 0,0 km/h (0 Bft) S-SW 205 0 min 0,000 mm 0,0 UV-I 0 W/m -3,3 C -0,9 C 0,0 km/h (0 Bft) 0,00 %
18.02.2015 03:45 -0,9 C 84 % 1040,6 hPa 0,0 l/m 0,4 km/h (0 Bft) SW 222 0 min 0,000 mm 0,0 UV-I 0 W/m -3,3 C -0,9 C 4,0 km/h (1 Bft) 0,00 %
18.02.2015 04:00 -0,9 C 84 % 1040,7 hPa 0,0 l/m 0,0 km/h (0 Bft) S-SW 208 0 min 0,000 mm 0,0 UV-I 0 W/m -3,3 C -0,9 C 0,0 km/h (0 Bft) 0,00 %
18.02.2015 04:15 -0,9 C 84 % 1040,6 hPa 0,0 l/m 0,4 km/h (0 Bft) W-SW 242 0 min 0,000 mm 0,0 UV-I 0 W/m -3,3 C -0,9 C 4,0 km/h (1 Bft) 0,00 %
18.02.2015 04:30 -1,0 C 84 % 1040,8 hPa 0,0 l/m 0,0 km/h (0 Bft) SW 229 0 min 0,000 mm 0,0 UV-I 0 W/m -3,4 C -1,0 C 0,0 km/h (0 Bft) 0,00 %
18.02.2015 04:45 -0,9 C 84 % 1040,9 hPa 0,0 l/m 0,0 km/h (0 Bft) W-SW 252 0 min 0,000 mm 0,0 UV-I 0 W/m -3,3 C -0,9 C 0,0 km/h (0 Bft) 0,00 %
18.02.2015 05:00 -1,0 C 85 % 1040,9 hPa 0,0 l/m 0,0 km/h (0 Bft) SW 221 0 min 0,000 mm 0,0 UV-I 0 W/m -3,2 C -1,0 C 0,0 km/h (0 Bft) 0,00 %
18.02.2015 05:15 -1,0 C 85 % 1041,0 hPa 0,0 l/m 0,0 km/h (0 Bft) S-SW 197 0 min 0,000 mm 0,0 UV-I 0 W/m -3,2 C -1,0 C 0,0 km/h (0 Bft) 0,00 %
18.02.2015 05:30 -1,0 C 85 % 1041,0 hPa 0,0 l/m 0,0 km/h (0 Bft) S-SW 197 0 min 0,000 mm 0,0 UV-I 0 W/m -3,2 C -1,0 C 0,0 km/h (0 Bft) 0,00 %
18.02.2015 05:45 -1,0 C 85 % 1041,1 hPa 0,0 l/m 0,0 km/h (0 Bft) SW 227 0 min 0,000 mm 0,0 UV-I 0 W/m -3,2 C -1,0 C 0,0 km/h (0 Bft) 0,00 %
18.02.2015 06:00 -1,0 C 85 % 1041,1 hPa 0,0 l/m 0,0 km/h (0 Bft) SW 226 0 min 0,000 mm 0,0 UV-I 0 W/m -3,2 C -1,0 C 0,0 km/h (0 Bft) 0,00 %
18.02.2015 06:15 -1,1 C 85 % 1041,2 hPa 0,0 l/m 0,0 km/h (0 Bft) SW 232 0 min 0,000 mm 0,0 UV-I 0 W/m -3,3 C -1,1 C 0,0 km/h (0 Bft) 0,00 %
18.02.2015 06:30 -1,1 C 85 % 1041,3 hPa 0,0 l/m 0,0 km/h (0 Bft) W-SW 254 0 min 0,000 mm 0,0 UV-I 0 W/m -3,3 C -1,1 C 0,0 km/h (0 Bft) 0,00 %
18.02.2015 06:45 -1,1 C 84 % 1041,6 hPa 0,0 l/m 0,0 km/h (0 Bft) S 178 0 min 0,000 mm 0,0 UV-I 0 W/m -3,4 C -1,1 C 0,0 km/h (0 Bft) 0,00 %
18.02.2015 07:00 -1,1 C 84 % 1041,7 hPa 0,0 l/m 0,0 km/h (0 Bft) SW 215 0 min 0,000 mm 0,0 UV-I 0 W/m -3,4 C -1,1 C 0,0 km/h (0 Bft) 0,00 %
18.02.2015 07:15 -1,1 C 84 % 1041,9 hPa 0,0 l/m 0,0 km/h (0 Bft) SW 216 0 min 0,000 mm 0,0 UV-I 0 W/m -3,4 C -1,1 C 0,0 km/h (0 Bft) 0,00 %
18.02.2015 07:30 -1,1 C 84 % 1042,0 hPa 0,0 l/m 0,0 km/h (0 Bft) W-SW 250 0 min 0,000 mm 0,0 UV-I 0 W/m -3,4 C -1,1 C 0,0 km/h (0 Bft) 0,00 %
18.02.2015 07:45 -1,0 C 84 % 1042,1 hPa 0,0 l/m 0,0 km/h (0 Bft) SW 220 0 min 0,000 mm 0,0 UV-I 0 W/m -3,4 C -1,0 C 0,0 km/h (0 Bft) 0,00 %
18.02.2015 08:00 -1,0 C 84 % 1042,0 hPa 0,0 l/m 0,0 km/h (0 Bft) SW 220 0 min 0,000 mm 0,0 UV-I 1 W/m -3,4 C -1,0 C 0,0 km/h (0 Bft) 0,00 %
18.02.2015 08:15 -1,0 C 84 % 1042,2 hPa 0,0 l/m 0,0 km/h (0 Bft) SW 220 0 min 0,000 mm 0,0 UV-I 5 W/m -3,4 C -1,0 C 0,0 km/h (0 Bft) 0,00 %
18.02.2015 08:30 -1,1 C 83 % 1042,2 hPa 0,0 l/m 0,0 km/h (0 Bft) SW 220 0 min 0,000 mm 0,0 UV-I 9 W/m -3,6 C -1,1 C 0,0 km/h (0 Bft) 0,00 %
18.02.2015 08:45 -1,0 C 83 % 1042,5 hPa 0,0 l/m 0,0 km/h (0 Bft) SW 220 0 min 0,000 mm 0,0 UV-I 18 W/m -3,5 C -1,0 C 0,0 km/h (0 Bft) 0,00 %
18.02.2015 09:00 -1,0 C 83 % 1042,4 hPa 0,0 l/m 0,0 km/h (0 Bft) SW 220 0 min 0,000 mm 0,0 UV-I 23 W/m -3,5 C -1,0 C 0,0 km/h (0 Bft) 0,00 %
18.02.2015 09:15 -0,8 C 82 % 1042,7 hPa 0,0 l/m 0,0 km/h (0 Bft) SW 220 0 min 0,000 mm 0,0 UV-I 31 W/m -3,5 C -0,8 C 0,0 km/h (0 Bft) 0,00 %
18.02.2015 09:30 -0,8 C 81 % 1042,7 hPa 0,0 l/m 0,0 km/h (0 Bft) SW 220 0 min 0,000 mm 0,0 UV-I 30 W/m -3,6 C -0,8 C 0,0 km/h (0 Bft) 0,00 %
18.02.2015 09:45 -0,7 C 81 % 1042,7 hPa 0,0 l/m 0,0 km/h (0 Bft) SW 220 0 min 0,000 mm 1,0 UV-I 36 W/m -3,5 C -0,7 C 0,0 km/h (0 Bft) 0,00 %
18.02.2015 10:00 -0,6 C 79 % 1042,7 hPa 0,0 l/m 0,0 km/h (0 Bft) SW 220 0 min 0,000 mm 1,0 UV-I 50 W/m -3,8 C -0,6 C 0,0 km/h (0 Bft) 0,00 %
18.02.2015 10:15 -0,3 C 77 % 1042,5 hPa 0,0 l/m 0,0 km/h (0 Bft) SW 220 0 min 0,000 mm 1,0 UV-I 70 W/m -3,8 C -0,3 C 0,0 km/h (0 Bft) 0,00 %
18.02.2015 10:30 -0,1 C 76 % 1042,4 hPa 0,0 l/m 0,0 km/h (0 Bft) SW 220 0 min 0,000 mm 1,0 UV-I 82 W/m -3,8 C -0,1 C 0,0 km/h (0 Bft) 0,00 %
18.02.2015 10:45 -0,2 C 74 % 1042,5 hPa 0,0 l/m 0,0 km/h (0 Bft) SW 220 0 min 0,000 mm 1,0 UV-I 87 W/m -4,3 C -0,2 C 0,0 km/h (0 Bft) 0,00 %
18.02.2015 11:00 0,1 C 73 % 1042,5 hPa 0,0 l/m 0,0 km/h (0 Bft) SW 220 0 min 0,000 mm 1,0 UV-I 99 W/m -4,2 C 0,1 C 0,0 km/h (0 Bft) 0,00 %
18.02.2015 11:15 0,6 C 71 % 1042,4 hPa 0,3 l/m 0,0 km/h (0 Bft) S-SW 213 0 min 0,000 mm 2,0 UV-I 148 W/m -4,0 C 0,6 C 0,0 km/h (0 Bft) 0,00 %
18.02.2015 11:30 0,7 C 70 % 1042,4 hPa 0,0 l/m 0,0 km/h (0 Bft) W-SW 253 0 min 0,000 mm 1,0 UV-I 116 W/m -4,1 C 0,7 C 0,0 km/h (0 Bft) 0,00 %
18.02.2015 11:45 0,8 C 70 % 1042,2 hPa 0,0 l/m 0,0 km/h (0 Bft) W-SW 253 0 min 0,000 mm 2,0 UV-I 123 W/m -4,0 C 0,8 C 0,0 km/h (0 Bft) 0,00 %
18.02.2015 12:00 1,3 C 68 % 1041,9 hPa 0,0 l/m 0,0 km/h (0 Bft) SW 224 0 min 0,000 mm 2,0 UV-I 166 W/m -3,9 C 1,3 C 0,0 km/h (0 Bft) 0,00 %
18.02.2015 12:15 1,2 C 69 % 1041,6 hPa 0,0 l/m 0,0 km/h (0 Bft) SW 220 0 min 0,000 mm 2,0 UV-I 141 W/m -3,8 C 1,2 C 0,0 km/h (0 Bft) 0,00 %
18.02.2015 12:30 1,3 C 69 % 1041,4 hPa 0,0 l/m 0,4 km/h (0 Bft) W-SW 252 0 min 0,000 mm 1,0 UV-I 153 W/m -3,7 C 1,3 C 4,0 km/h (1 Bft) 0,00 %
18.02.2015 12:45 1,1 C 69 % 1041,4 hPa 0,0 l/m 0,0 km/h (0 Bft) SW 233 0 min 0,000 mm 1,0 UV-I 112 W/m -3,9 C 1,1 C 0,0 km/h (0 Bft) 0,00 %
18.02.2015 13:00 1,1 C 69 % 1041,0 hPa 0,0 l/m 0,0 km/h (0 Bft) W-SW 239 0 min 0,000 mm 1,0 UV-I 121 W/m -3,9 C 1,1 C 0,0 km/h (0 Bft) 0,00 %
18.02.2015 13:15 1,4 C 67 % 1041,1 hPa 0,0 l/m 0,0 km/h (0 Bft) S 173 0 min 0,000 mm 1,0 UV-I 117 W/m -4,0 C 1,4 C 0,0 km/h (0 Bft) 0,00 %
18.02.2015 13:30 1,2 C 68 % 1040,8 hPa 0,0 l/m 0,0 km/h (0 Bft) S-SW 213 0 min 0,000 mm 1,0 UV-I 129 W/m -4,0 C 1,2 C 0,0 km/h (0 Bft) 0,00 %
18.02.2015 13:45 1,3 C 68 % 1040,7 hPa 0,0 l/m 0,0 km/h (0 Bft) S-SW 209 0 min 0,000 mm 1,0 UV-I 119 W/m -3,9 C 1,3 C 0,0 km/h (0 Bft) 0,00 %
18.02.2015 14:00 1,3 C 68 % 1040,6 hPa 0,0 l/m 0,0 km/h (0 Bft) SW 217 0 min 0,000 mm 1,0 UV-I 103 W/m -3,9 C 1,3 C 0,0 km/h (0 Bft) 0,00 %
18.02.2015 14:15 1,0 C 69 % 1040,6 hPa 0,0 l/m 0,0 km/h (0 Bft) SW 226 0 min 0,000 mm 1,0 UV-I 82 W/m -4,0 C 1,0 C 0,0 km/h (0 Bft) 0,00 %
18.02.2015 14:30 0,6 C 69 % 1040,3 hPa 0,0 l/m 0,0 km/h (0 Bft) W-SW 255 0 min 0,000 mm 1,0 UV-I 72 W/m -4,4 C 0,6 C 0,0 km/h (0 Bft) 0,00 %
18.02.2015 14:45 0,5 C 71 % 1040,3 hPa 0,0 l/m 0,0 km/h (0 Bft) S-SW 202 0 min 0,000 mm 1,0 UV-I 66 W/m -4,1 C 0,5 C 0,0 km/h (0 Bft) 0,00 %
18.02.2015 15:00 0,5 C 69 % 1039,9 hPa 0,0 l/m 0,0 km/h (0 Bft) S 185 0 min 0,000 mm 1,0 UV-I 56 W/m -4,5 C 0,5 C 0,0 km/h (0 Bft) 0,00 %
18.02.2015 15:15 0,7 C 69 % 1039,9 hPa 0,0 l/m 0,0 km/h (0 Bft) S-SW 206 0 min 0,000 mm 1,0 UV-I 55 W/m -4,3 C 0,7 C 0,0 km/h (0 Bft) 0,00 %
18.02.2015 15:30 0,6 C 69 % 1039,5 hPa 0,0 l/m 0,0 km/h (0 Bft) S 179 0 min 0,000 mm 1,0 UV-I 45 W/m -4,4 C 0,6 C 0,0 km/h (0 Bft) 0,00 %
18.02.2015 15:45 0,5 C 71 % 1039,6 hPa 0,0 l/m 0,0 km/h (0 Bft) S-SW 204 0 min 0,000 mm 0,0 UV-I 41 W/m -4,1 C 0,5 C 0,0 km/h (0 Bft) 0,00 %
18.02.2015 16:00 0,2 C 71 % 1039,6 hPa 0,0 l/m 0,0 km/h (0 Bft) S 181 0 min 0,000 mm 0,0 UV-I 32 W/m -4,4 C 0,2 C 0,0 km/h (0 Bft) 0,00 %
18.02.2015 16:15 0,3 C 71 % 1039,3 hPa 0,0 l/m 0,0 km/h (0 Bft) S-SW 213 0 min 0,000 mm 0,0 UV-I 27 W/m -4,3 C 0,3 C 0,0 km/h (0 Bft) 0,00 %
18.02.2015 16:30 0,4 C 71 % 1039,4 hPa 0,0 l/m 0,0 km/h (0 Bft) O 80 0 min 0,000 mm 0,0 UV-I 29 W/m -4,2 C 0,4 C 0,0 km/h (0 Bft) 0,00 %
18.02.2015 16:45 0,2 C 71 % 1039,4 hPa 0,0 l/m 0,0 km/h (0 Bft) S 172 0 min 0,000 mm 0,0 UV-I 12 W/m -4,4 C 0,2 C 0,0 km/h (0 Bft) 0,00 %
18.02.2015 17:00 0,0 C 71 % 1039,2 hPa 0,0 l/m 0,7 km/h (0 Bft) O-SO 115 0 min 0,000 mm 0,0 UV-I 6 W/m -4,6 C 0,0 C 4,0 km/h (1 Bft) 0,00 %
18.02.2015 17:15 -0,2 C 71 % 1039,2 hPa 0,0 l/m 0,0 km/h (0 Bft) S-SO 157 0 min 0,000 mm 0,0 UV-I 0 W/m -4,8 C -0,2 C 0,0 km/h (0 Bft) 0,00 %
18.02.2015 17:30 -0,2 C 72 % 1039,3 hPa 0,0 l/m 0,0 km/h (0 Bft) S-SW 196 0 min 0,000 mm 0,0 UV-I 0 W/m -4,6 C -0,2 C 0,0 km/h (0 Bft) 0,00 %
18.02.2015 17:45 -0,2 C 73 % 1039,6 hPa 0,0 l/m 0,0 km/h (0 Bft) S 176 0 min 0,000 mm 0,0 UV-I 0 W/m -4,4 C -0,2 C 0,0 km/h (0 Bft) 0,00 %
18.02.2015 18:00 -0,2 C 73 % 1039,4 hPa 0,0 l/m 0,0 km/h (0 Bft) S 187 0 min 0,000 mm 0,0 UV-I 0 W/m -4,4 C -0,2 C 0,0 km/h (0 Bft) 0,00 %
18.02.2015 18:15 -0,3 C 72 % 1039,6 hPa 0,0 l/m 0,0 km/h (0 Bft) S 191 0 min 0,000 mm 0,0 UV-I 0 W/m -4,7 C -0,3 C 0,0 km/h (0 Bft) 0,00 %
18.02.2015 18:30 -0,3 C 74 % 1039,6 hPa 0,0 l/m 0,0 km/h (0 Bft) S-SW 212 0 min 0,000 mm 0,0 UV-I 0 W/m -4,4 C -0,3 C 0,0 km/h (0 Bft) 0,00 %
18.02.2015 18:45 -0,4 C 74 % 1039,3 hPa 0,0 l/m 0,0 km/h (0 Bft) S-SW 195 0 min 0,000 mm 0,0 UV-I 0 W/m -4,5 C -0,4 C 0,0 km/h (0 Bft) 0,00 %
18.02.2015 19:00 -0,4 C 74 % 1039,1 hPa 0,0 l/m 0,0 km/h (0 Bft) S 189 0 min 0,000 mm 0,0 UV-I 0 W/m -4,5 C -0,4 C 0,0 km/h (0 Bft) 0,00 %
18.02.2015 19:15 -0,3 C 74 % 1039,1 hPa 0,0 l/m 0,0 km/h (0 Bft) S-SW 203 0 min 0,000 mm 0,0 UV-I 0 W/m -4,4 C -0,3 C 0,0 km/h (0 Bft) 0,00 %
18.02.2015 19:30 -0,3 C 73 % 1038,9 hPa 0,0 l/m 0,0 km/h (0 Bft) S 189 0 min 0,000 mm 0,0 UV-I 0 W/m -4,5 C -0,3 C 0,0 km/h (0 Bft) 0,00 %
18.02.2015 19:45 -0,2 C 73 % 1039,2 hPa 0,0 l/m 0,0 km/h (0 Bft) S-SW 192 0 min 0,000 mm 0,0 UV-I 0 W/m -4,4 C -0,2 C 0,0 km/h (0 Bft) 0,00 %
18.02.2015 20:00 -0,2 C 74 % 1039,0 hPa 0,0 l/m 0,0 km/h (0 Bft) S 172 0 min 0,000 mm 0,0 UV-I 0 W/m -4,3 C -0,2 C 0,0 km/h (0 Bft) 0,00 %
18.02.2015 20:15 -0,2 C 72 % 1038,8 hPa 0,0 l/m 0,0 km/h (0 Bft) S 172 0 min 0,000 mm 0,0 UV-I 0 W/m -4,6 C -0,2 C 0,0 km/h (0 Bft) 0,00 %
18.02.2015 20:30 -0,2 C 73 % 1039,0 hPa 0,0 l/m 0,0 km/h (0 Bft) S 190 0 min 0,000 mm 0,0 UV-I 0 W/m -4,4 C -0,2 C 0,0 km/h (0 Bft) 0,00 %
18.02.2015 20:45 -0,2 C 72 % 1038,9 hPa 0,0 l/m 0,4 km/h (0 Bft) SO 131 0 min 0,000 mm 0,0 UV-I 0 W/m -4,6 C -0,2 C 4,0 km/h (1 Bft) 0,00 %
18.02.2015 21:00 -0,1 C 71 % 1038,7 hPa 0,0 l/m 0,4 km/h (0 Bft) O-SO 105 0 min 0,000 mm 0,0 UV-I 0 W/m -4,7 C -0,1 C 4,0 km/h (1 Bft) 0,00 %
18.02.2015 21:15 -0,1 C 71 % 1038,9 hPa 0,0 l/m 0,0 km/h (0 Bft) S 191 0 min 0,000 mm 0,0 UV-I 0 W/m -4,7 C -0,1 C 0,0 km/h (0 Bft) 0,00 %
18.02.2015 21:30 -0,1 C 71 % 1039,2 hPa 0,0 l/m 0,7 km/h (0 Bft) O-SO 102 0 min 0,000 mm 0,0 UV-I 0 W/m -4,7 C -0,1 C 4,0 km/h (1 Bft) 0,00 %
18.02.2015 21:45 -0,2 C 71 % 1038,9 hPa 0,0 l/m 0,0 km/h (0 Bft) S-SW 210 0 min 0,000 mm 0,0 UV-I 0 W/m -4,8 C -0,2 C 0,0 km/h (0 Bft) 0,00 %
18.02.2015 22:00 -0,2 C 71 % 1038,7 hPa 0,0 l/m 0,0 km/h (0 Bft) S 182 0 min 0,000 mm 0,0 UV-I 0 W/m -4,8 C -0,2 C 0,0 km/h (0 Bft) 0,00 %
18.02.2015 22:15 -0,2 C 71 % 1039,0 hPa 0,0 l/m 0,0 km/h (0 Bft) S 173 0 min 0,000 mm 0,0 UV-I 0 W/m -4,8 C -0,2 C 0,0 km/h (0 Bft) 0,00 %
18.02.2015 22:30 -0,2 C 70 % 1038,8 hPa 0,0 l/m 0,4 km/h (0 Bft) SO 129 0 min 0,000 mm 0,0 UV-I 0 W/m -5,0 C -0,2 C 4,0 km/h (1 Bft) 0,00 %
18.02.2015 22:45 -0,3 C 70 % 1038,6 hPa 0,0 l/m 1,4 km/h (1 Bft) O-SO 123 0 min 0,000 mm 0,0 UV-I 0 W/m -5,1 C -0,3 C 4,0 km/h (1 Bft) 0,00 %
18.02.2015 23:00 -0,3 C 71 % 1038,3 hPa 0,0 l/m 0,0 km/h (0 Bft) S 183 0 min 0,000 mm 0,0 UV-I 0 W/m -4,9 C -0,3 C 0,0 km/h (0 Bft) 0,00 %
18.02.2015 23:15 -0,4 C 71 % 1038,1 hPa 0,0 l/m 0,0 km/h (0 Bft) S-SW 202 0 min 0,000 mm 0,0 UV-I 0 W/m -5,0 C -0,4 C 0,0 km/h (0 Bft) 0,00 %
18.02.2015 23:30 -0,5 C 72 % 1038,1 hPa 0,0 l/m 0,0 km/h (0 Bft) SW 233 0 min 0,000 mm 0,0 UV-I 0 W/m -4,9 C -0,5 C 0,0 km/h (0 Bft) 0,00 %
18.02.2015 23:45 -0,4 C 72 % 1038,0 hPa 0,0 l/m 0,0 km/h (0 Bft) W-SW 253 0 min 0,000 mm 0,0 UV-I 0 W/m -4,8 C -0,4 C 0,0 km/h (0 Bft) 0,00 %
_ Min-Zeit 01:30 13:15 23:45 - 00:00 - - - - - - 22:45 01:30 00:00 00:00
Minimum _ -1,1 C 67 % 1038,0 hPa - 0,0 km/h (0 Bft) - - - - - - -5,1 C -1,1 C 0,0 km/h (0 Bft) 0,00 %
_ Max-Zeit 13:15 05:00 09:15 11:15 01:00 - - 00:00 00:00 11:15 12:00 05:00 13:15 01:00 00:00
Maximum _ 1,4 C 85 % 1042,7 hPa 0,3 l/m 5,4 km/h
W-SW (1 Bft)
- - 0 min 0,000 mm 2,0 UV-I 166 W/m -3,2 C 1,4 C 7,9 km/h
W-SW (2 Bft)
0,00 %
Durchschnitt _ -0,3 C 76 % 1040,4 hPa #0,3 l/m 0,1 km/h (0 Bft) SW - #0 min. #0,000 mm 1,2 UV-I 71 W/m -4,0 C -0,3 C 0,6 km/h (0 Bft) 0,00 %